Regional Weather Roundup
Issued by NWS

Home | Current Version | Previous Version | Graphics & Text | Print | Product List | Glossary On
Versions: 1 2 3 4 5 6 7 8 9 10 11 12 13 14 15 16 17 18 19 20 21 22 23 24 25 26 27 28 29 30 31 32 33 34 35 36 37 38 39 40 41 42 43 44 45 46 47 48 49 50
000
ASUS43 KLOT 010800
RWRIL

ILLINOIS REGIONAL WEATHER ROUNDUP
NATIONAL WEATHER SERVICE CHICAGO/ROMEOVILLE IL
300 AM CDT SAT NOV 01 2014

NOTE: "FAIR" INDICATES FEW OR NO CLOUDS BELOW 12,000 FEET WITH NO
SIGNIFICANT WEATHER AND/OR OBSTRUCTIONS TO VISIBILITY.

* THESE STATIONS ARE NOT UNDER NWS QUALITY CONTROL. THEY ALSO MAY NOT
  REPORT WEATHER SUCH AS PRECIPITATION OR FOG.

ILZ001-002-007-009-015-016-024-010900-
NORTHWEST ILLINOIS

CITY           SKY/WX    TMP DP  RH WIND       PRES   REMARKS
MOLINE         CLEAR     30  18  60 N5        30.46R WCI  25
STERLING*      CLEAR     27  18  69 N7        30.43S WCI  19
SAVANNA*       CLEAR     27  19  69 N7        30.46R WCI  20
$$

ILZ003-004-008-010-011-017-018-010900-
NORTH CENTRAL ILLINOIS

CITY           SKY/WX    TMP DP  RH WIND       PRES   REMARKS
ROCKFORD       CLOUDY    32  18  56 N12       30.43S WCI  23
FREEPORT*      CLEAR     21  17  83 N7        30.45S WCI  13
ROCHELLE*      CLOUDY    31  20  62 N10       30.41S WCI  22
DE KALB*       CLOUDY    32  20  60 N12G17    30.38S WCI  23
$$

ILZ005-006-012>014-019>023-010900-
NORTHEAST ILLINOIS

CITY           SKY/WX    TMP DP  RH WIND       PRES   REMARKS
CHICAGO-OHARE  CLOUDY    35  22  58 N15       30.35R WCI  25
CHICAGO-MIDWAY FLURRIES  39  26  59 N14G22    30.33F WCI  31
AURORA         CLOUDY    35  20  54 N14       30.37S WCI  26
LANSING*       CLOUDY    38  27  62 NE18G26   30.31S WCI  29
WAUKEGAN       NOT AVBL
DUPAGE AIRPORT CLOUDY    35  21  56 N18       30.35S WCI  24
WHEELING       CLOUDY    36  22  56 N13G20    30.37S WCI  27
NORTHERLY ISL    N/A     39  27  62 MISG        N/A
$$

LMZ740>746-010900-
SOUTHERN LAKE MICHIGAN

STATION/POSITION SKY/WX   TEMP    WIND        PRES    VSBY  WAVE
                          AIR SEA DIR/SP/G                  HT/PER
                          (F)     (DEG/KT/KT) (MB)    (MI)  (FT/S)
SOUTHERN BUOY              38 48   10/ 23/ 29 1027.1R        10/ 9
WAUKEGAN HARBOR            36     360/ 10/ 15   N/A
HARRISON CRIB              40      10/ 30/ 37   N/A
BURNHAM HARBOR             39      20/ 23/ 28   N/A
CALUMET HARBOR             40     350/ 19/ 29 1025.4R
MICHIGAN CITY              39     350/ 31/ 38   N/A
$$

ILZ025>027-034>036-040-047-049-050-058-095>099-010900-
WEST-CENTRAL ILLINOIS

CITY           SKY/WX    TMP DP  RH WIND       PRES   REMARKS
QUINCY         CLEAR     25  19  78 N7        30.44S WCI  17
GALESBURG*     CLEAR     20  17  87 W5        30.44S WCI  14
$$

ILZ028>032-037-038-041>044-048-051>054-059>061-010900-
CENTRAL ILLINOIS

CITY           SKY/WX    TMP DP  RH WIND       PRES   REMARKS
PONTIAC        MOCLDY    34  23  65 N13       30.36S WCI  25
DECATUR        FAIR      32  22  66 NW16      30.36R WCI  21
PEORIA         CLEAR     31  19  61 N7        30.41S WCI  24
LINCOLN*       CLEAR     32  22  67 NW7       30.39S WCI  26
SPRINGFIELD    CLEAR     32  20  61 N12       30.40S WCI  23
TAYLORVILLE    NOT AVBL
$$

ILZ033-039-045-046-055>057-062-063-010900-
EAST-CENTRAL ILLINOIS

CITY           SKY/WX    TMP DP  RH WIND       PRES   REMARKS
CHAMPAIGN      CLOUDY    34  23  64 N15       30.32R WCI  24
MATTOON        CLEAR     32  22  66 NW15      30.31R WCI  22
$$

ILZ079-100>102-010900-
SOUTHWEST ILLINOIS

CITY           SKY/WX    TMP DP  RH WIND       PRES   REMARKS
ALTON          CLEAR     32  19  60 NW6       30.40S WCI  26
BELLEVILLE     CLEAR     32  22  68 VRB7      30.38S WCI  25
CAHOKIA*       CLEAR     35  22  58 N14       30.41R WCI  26
SPARTA*        CLEAR     32  22  67 NW7       30.38S WCI  26
$$

ILZ064>066-069>071-074>076-080>082-084>086-088>090-092>094-010900-
SOUTH-CENTRAL ILLINOIS

CITY           SKY/WX    TMP DP  RH WIND       PRES   REMARKS
CARBONDALE     NOT AVBL
MARION         CLEAR     36  21  55 N7        30.34S WCI  30
MT. VERNON     CLEAR     34  18  51 N6        30.33S WCI  29
SALEM*         CLEAR     35  24  64 N12G18    30.34S WCI  27
$$

ILZ067-068-072-073-078-083-087-091-010900-
SOUTHEAST ILLINOIS

CITY           SKY/WX    TMP DP  RH WIND       PRES   REMARKS
LAWRENCEVILLE  CLOUDY    37  28  70 N15       30.28R WCI  28
FAIRFIELD*     CLEAR     34  23  64 NW7       30.30S WCI  28
HARRISBURG*    CLEAR     35  22  60 N10G17    30.32S WCI  27
$$

ABBREVIATIONS USED IN REMARKS
   TC - TEMPERATURE IN CELSIUS
  WCI - WIND CHILL INDEX
   HX - HEAT INDEX
  VSB - VISIBILITY
$$




USA.gov is the U.S. government's official web portal to all federal, state and local government web resources and services.